contact:dominique.lefevre@mio.osupytheas.fr, maurice.libes@osupytheas.fr, didier.mallarino@osupytheas.fr
Project:EMSO http://www.emso-fr.org/EMSO-France
Depth: 2436.0 m
Title:EMSO Ligure Ouest : Data MII capteur MICROCAT
DateTime_Computer,Latitude,Longitude,Temperature,Conductivity,Pressure,DateTime_Instrument
DateTime_Computer,Latitude,Longitude,degC,S m-1,dbar,DateTime_Instrument
2022-10-13T00:02:46Z,42.805,6.029,13.3041,4.60135,2470.637,2022-10-13T02:04:41Z
2022-10-13T00:05:49Z,42.805,6.029,13.3054,4.60141,2470.6,2022-10-13T02:07:44Z
2022-10-13T00:08:52Z,42.805,6.029,13.3036,4.60162,2470.591,2022-10-13T02:10:47Z
2022-10-13T00:11:55Z,42.805,6.029,13.3045,4.60128,2470.614,2022-10-13T02:13:50Z
2022-10-13T00:14:58Z,42.805,6.029,13.3039,4.60129,2470.567,2022-10-13T02:16:53Z
2022-10-13T00:18:01Z,42.805,6.029,13.3031,4.60165,2470.624,2022-10-13T02:19:56Z
2022-10-13T00:21:05Z,42.805,6.029,13.3034,4.60139,2470.614,2022-10-13T02:22:59Z
2022-10-13T00:24:08Z,42.805,6.029,13.3043,4.60160,2470.614,2022-10-13T02:26:03Z
2022-10-13T00:27:11Z,42.805,6.029,13.3073,4.60154,2470.577,2022-10-13T02:29:06Z
2022-10-13T00:30:14Z,42.805,6.029,13.3047,4.60128,2470.6,2022-10-13T02:32:09Z
2022-10-13T00:33:17Z,42.805,6.029,13.3070,4.60132,2470.591,2022-10-13T02:35:12Z
2022-10-13T00:36:20Z,42.805,6.029,13.3048,4.60134,2470.614,2022-10-13T02:38:15Z
2022-10-13T00:39:23Z,42.805,6.029,13.3038,4.60135,2470.6,2022-10-13T02:41:18Z
2022-10-13T00:42:26Z,42.805,6.029,13.3046,4.60159,2470.591,2022-10-13T02:44:21Z
2022-10-13T00:45:29Z,42.805,6.029,13.3061,4.60092,2470.577,2022-10-13T02:47:24Z
2022-10-13T00:48:32Z,42.805,6.029,13.3043,4.60152,2470.591,2022-10-13T02:50:27Z
2022-10-13T00:51:35Z,42.805,6.029,13.3041,4.60140,2470.577,2022-10-13T02:53:30Z
2022-10-13T00:54:38Z,42.805,6.029,13.3039,4.60141,2470.577,2022-10-13T02:56:33Z
2022-10-13T00:57:42Z,42.805,6.029,13.3043,4.60129,2470.553,2022-10-13T02:59:36Z
2022-10-13T01:00:45Z,42.805,6.029,13.3059,4.60150,2470.577,2022-10-13T03:02:40Z
2022-10-13T01:03:48Z,42.805,6.029,13.3048,4.60138,2470.614,2022-10-13T03:05:43Z
2022-10-13T01:06:51Z,42.805,6.029,13.3046,4.60137,2470.591,2022-10-13T03:08:46Z
2022-10-13T01:09:54Z,42.805,6.029,13.3053,4.60120,2470.577,2022-10-13T03:11:49Z
2022-10-13T01:12:57Z,42.805,6.029,13.3041,4.60139,2470.614,2022-10-13T03:14:52Z
2022-10-13T01:16:00Z,42.805,6.029,13.3046,4.60135,2470.567,2022-10-13T03:17:55Z
2022-10-13T01:19:03Z,42.805,6.029,13.3032,4.60131,2470.6,2022-10-13T03:20:58Z
2022-10-13T01:22:06Z,42.805,6.029,13.3034,4.60107,2470.539,2022-10-13T03:24:01Z
2022-10-13T01:25:09Z,42.805,6.029,13.3051,4.60176,2470.6,2022-10-13T03:27:04Z
2022-10-13T01:28:12Z,42.805,6.029,13.3041,4.60129,2470.567,2022-10-13T03:30:07Z
2022-10-13T01:31:15Z,42.805,6.029,13.3045,4.60144,2470.577,2022-10-13T03:33:10Z
2022-10-13T01:34:18Z,42.805,6.029,13.3069,4.60160,2470.591,2022-10-13T03:36:13Z
2022-10-13T01:37:22Z,42.805,6.029,13.3043,4.60137,2470.591,2022-10-13T03:39:16Z
2022-10-13T01:40:25Z,42.805,6.029,13.3064,4.60141,2470.567,2022-10-13T03:42:20Z
2022-10-13T01:43:28Z,42.805,6.029,13.3054,4.60143,2470.577,2022-10-13T03:45:23Z
2022-10-13T01:46:31Z,42.805,6.029,13.3046,4.60146,2470.591,2022-10-13T03:48:26Z
2022-10-13T01:49:34Z,42.805,6.029,13.3081,4.60151,2470.614,2022-10-13T03:51:29Z
2022-10-13T01:52:37Z,42.805,6.029,13.3041,4.60152,2470.553,2022-10-13T03:54:32Z
2022-10-13T01:55:40Z,42.805,6.029,13.3037,4.60155,2470.577,2022-10-13T03:57:35Z
2022-10-13T01:58:43Z,42.805,6.029,13.3042,4.60143,2470.591,2022-10-13T04:00:38Z
2022-10-13T02:01:46Z,42.805,6.029,13.3042,4.60150,2470.553,2022-10-13T04:03:41Z
2022-10-13T02:04:49Z,42.805,6.029,13.3046,4.60136,2470.544,2022-10-13T04:06:44Z
2022-10-13T02:07:52Z,42.805,6.029,13.3039,4.60137,2470.591,2022-10-13T04:09:47Z
2022-10-13T02:10:55Z,42.805,6.029,13.3041,4.60137,2470.567,2022-10-13T04:12:50Z
2022-10-13T02:13:58Z,42.805,6.029,13.3039,4.60147,2470.553,2022-10-13T04:15:53Z
2022-10-13T02:17:02Z,42.805,6.029,13.3064,4.60155,2470.567,2022-10-13T04:18:56Z
2022-10-13T02:20:05Z,42.805,6.029,13.3047,4.60127,2470.553,2022-10-13T04:22:00Z
2022-10-13T02:23:08Z,42.805,6.029,13.3036,4.60122,2470.553,2022-10-13T04:25:03Z
2022-10-13T02:26:11Z,42.805,6.029,13.3036,4.60150,2470.553,2022-10-13T04:28:06Z
2022-10-13T02:29:14Z,42.805,6.029,13.3040,4.60155,2470.53,2022-10-13T04:31:09Z
2022-10-13T02:32:17Z,42.805,6.029,13.3044,4.60140,2470.544,2022-10-13T04:34:12Z
2022-10-13T02:35:20Z,42.805,6.029,13.3064,4.60129,2470.53,2022-10-13T04:37:15Z
2022-10-13T02:38:23Z,42.805,6.029,13.3061,4.60142,2470.544,2022-10-13T04:40:18Z
2022-10-13T02:41:26Z,42.805,6.029,13.3043,4.60132,2470.544,2022-10-13T04:43:21Z
2022-10-13T02:44:29Z,42.805,6.029,13.3039,4.60175,2470.553,2022-10-13T04:46:24Z
2022-10-13T02:47:32Z,42.805,6.029,13.3045,4.60094,2470.53,2022-10-13T04:49:27Z
2022-10-13T02:50:35Z,42.805,6.029,13.3051,4.60140,2470.567,2022-10-13T04:52:30Z
2022-10-13T02:53:38Z,42.805,6.029,13.3055,4.60117,2470.577,2022-10-13T04:55:33Z
2022-10-13T02:56:42Z,42.805,6.029,13.3067,4.60154,2470.53,2022-10-13T04:58:37Z
2022-10-13T02:59:45Z,42.805,6.029,13.3067,4.60163,2470.53,2022-10-13T05:01:40Z
2022-10-13T03:02:48Z,42.805,6.029,13.3056,4.60146,2470.553,2022-10-13T05:04:43Z
2022-10-13T03:05:51Z,42.805,6.029,13.3042,4.60157,2470.53,2022-10-13T05:07:46Z
2022-10-13T03:08:54Z,42.805,6.029,13.3043,4.60125,2470.553,2022-10-13T05:10:49Z
2022-10-13T03:11:57Z,42.805,6.029,13.3054,4.60156,2470.553,2022-10-13T05:13:52Z
2022-10-13T03:15:00Z,42.805,6.029,13.3054,4.60168,2470.544,2022-10-13T05:16:55Z
2022-10-13T03:18:03Z,42.805,6.029,13.3071,4.60152,2470.567,2022-10-13T05:19:58Z
2022-10-13T03:21:06Z,42.805,6.029,13.3067,4.60161,2470.53,2022-10-13T05:23:01Z
2022-10-13T03:24:09Z,42.805,6.029,13.3056,4.60119,2470.52,2022-10-13T05:26:04Z
2022-10-13T03:27:12Z,42.805,6.029,13.3041,4.60153,2470.591,2022-10-13T05:29:07Z
2022-10-13T03:30:15Z,42.805,6.029,13.3069,4.60148,2470.53,2022-10-13T05:32:10Z
2022-10-13T03:33:18Z,42.805,6.029,13.3045,4.60155,2470.52,2022-10-13T05:35:13Z
2022-10-13T03:36:22Z,42.805,6.029,13.3043,4.60134,2470.507,2022-10-13T05:38:16Z
2022-10-13T03:39:25Z,42.805,6.029,13.3069,4.60150,2470.544,2022-10-13T05:41:20Z
2022-10-13T03:42:28Z,42.805,6.029,13.3053,4.60151,2470.553,2022-10-13T05:44:23Z
2022-10-13T03:45:31Z,42.805,6.029,13.3046,4.60120,2470.553,2022-10-13T05:47:26Z
2022-10-13T03:48:34Z,42.805,6.029,13.3055,4.60143,2470.553,2022-10-13T05:50:29Z
2022-10-13T03:51:37Z,42.805,6.029,13.3056,4.60166,2470.544,2022-10-13T05:53:32Z
2022-10-13T03:54:40Z,42.805,6.029,13.3076,4.60132,2470.507,2022-10-13T05:56:35Z
2022-10-13T03:57:43Z,42.805,6.029,13.3048,4.60167,2470.553,2022-10-13T05:59:38Z
2022-10-13T04:00:46Z,42.805,6.029,13.3064,4.60165,2470.544,2022-10-13T06:02:41Z
2022-10-13T04:03:49Z,42.805,6.029,13.3063,4.60148,2470.53,2022-10-13T06:05:44Z
2022-10-13T04:06:52Z,42.805,6.029,13.3059,4.60143,2470.53,2022-10-13T06:08:47Z
2022-10-13T04:09:55Z,42.805,6.029,13.3054,4.60144,2470.553,2022-10-13T06:11:50Z
2022-10-13T04:12:59Z,42.805,6.029,13.3046,4.60127,2470.507,2022-10-13T06:14:53Z
2022-10-13T04:16:02Z,42.805,6.029,13.3049,4.60150,2470.553,2022-10-13T06:17:57Z
2022-10-13T04:19:05Z,42.805,6.029,13.3059,4.60150,2470.567,2022-10-13T06:21:00Z
2022-10-13T04:22:08Z,42.805,6.029,13.3056,4.60147,2470.567,2022-10-13T06:24:03Z
2022-10-13T04:25:11Z,42.805,6.029,13.3064,4.60168,2470.507,2022-10-13T06:27:06Z
2022-10-13T04:28:14Z,42.805,6.029,13.3047,4.60152,2470.53,2022-10-13T06:30:09Z
2022-10-13T04:31:17Z,42.805,6.029,13.3052,4.60151,2470.544,2022-10-13T06:33:12Z
2022-10-13T04:34:20Z,42.805,6.029,13.3053,4.60170,2470.577,2022-10-13T06:36:15Z
2022-10-13T04:37:23Z,42.805,6.029,13.3084,4.60133,2470.53,2022-10-13T06:39:18Z
2022-10-13T04:40:26Z,42.805,6.029,13.3071,4.60121,2470.544,2022-10-13T06:42:21Z
2022-10-13T04:43:29Z,42.805,6.029,13.3068,4.60136,2470.53,2022-10-13T06:45:24Z
2022-10-13T04:46:32Z,42.805,6.029,13.3054,4.60134,2470.52,2022-10-13T06:48:27Z
2022-10-13T04:49:35Z,42.805,6.029,13.3049,4.60150,2470.577,2022-10-13T06:51:30Z
2022-10-13T04:52:39Z,42.805,6.029,13.3042,4.60129,2470.553,2022-10-13T06:54:33Z
2022-10-13T04:55:42Z,42.805,6.029,13.3056,4.60140,2470.577,2022-10-13T06:57:37Z
2022-10-13T04:58:45Z,42.805,6.029,13.3063,4.60137,2470.52,2022-10-13T07:00:40Z
2022-10-13T05:01:48Z,42.805,6.029,13.3067,4.60140,2470.53,2022-10-13T07:03:43Z
2022-10-13T05:04:51Z,42.805,6.029,13.3058,4.60123,2470.544,2022-10-13T07:06:46Z
2022-10-13T05:07:54Z,42.805,6.029,13.3047,4.60151,2470.544,2022-10-13T07:09:49Z
2022-10-13T05:10:57Z,42.805,6.029,13.3046,4.60137,2470.591,2022-10-13T07:12:52Z
2022-10-13T05:14:00Z,42.805,6.029,13.3044,4.60144,2470.591,2022-10-13T07:15:55Z
2022-10-13T05:17:03Z,42.805,6.029,13.3042,4.60180,2470.6,2022-10-13T07:18:58Z
2022-10-13T05:20:06Z,42.805,6.029,13.3041,4.60156,2470.567,2022-10-13T07:22:01Z
2022-10-13T05:23:09Z,42.805,6.029,13.3052,4.60137,2470.6,2022-10-13T07:25:04Z
2022-10-13T05:26:12Z,42.805,6.029,13.3048,4.60157,2470.577,2022-10-13T07:28:07Z
2022-10-13T05:29:15Z,42.805,6.029,13.3044,4.60137,2470.577,2022-10-13T07:31:10Z
2022-10-13T05:32:19Z,42.805,6.029,13.3041,4.60150,2470.544,2022-10-13T07:34:13Z
2022-10-13T05:35:22Z,42.805,6.029,13.3058,4.60169,2470.591,2022-10-13T07:37:17Z
2022-10-13T05:38:25Z,42.805,6.029,13.3047,4.60161,2470.624,2022-10-13T07:40:20Z
2022-10-13T05:41:28Z,42.805,6.029,13.3070,4.60150,2470.624,2022-10-13T07:43:23Z
2022-10-13T05:44:31Z,42.805,6.029,13.3047,4.60156,2470.577,2022-10-13T07:46:26Z
2022-10-13T05:47:34Z,42.805,6.029,13.3048,4.60150,2470.6,2022-10-13T07:49:29Z
2022-10-13T05:50:37Z,42.805,6.029,13.3039,4.60140,2470.591,2022-10-13T07:52:32Z
2022-10-13T05:53:40Z,42.805,6.029,13.3053,4.60155,2470.614,2022-10-13T07:55:35Z
2022-10-13T05:56:43Z,42.805,6.029,13.3054,4.60161,2470.591,2022-10-13T07:58:38Z
2022-10-13T05:59:46Z,42.805,6.029,13.3051,4.60142,2470.637,2022-10-13T08:01:41Z
2022-10-13T06:02:49Z,42.805,6.029,13.3040,4.60149,2470.661,2022-10-13T08:04:44Z
2022-10-13T06:05:52Z,42.805,6.029,13.3039,4.60152,2470.646,2022-10-13T08:07:47Z
2022-10-13T06:08:55Z,42.805,6.029,13.3048,4.60146,2470.637,2022-10-13T08:10:50Z
2022-10-13T06:11:59Z,42.805,6.029,13.3038,4.60157,2470.661,2022-10-13T08:13:53Z
2022-10-13T06:15:02Z,42.805,6.029,13.3048,4.60150,2470.624,2022-10-13T08:16:57Z
2022-10-13T06:18:05Z,42.805,6.029,13.3044,4.60151,2470.624,2022-10-13T08:20:00Z
2022-10-13T06:21:08Z,42.805,6.029,13.3042,4.60169,2470.637,2022-10-13T08:23:03Z
2022-10-13T06:24:11Z,42.805,6.029,13.3046,4.60176,2470.624,2022-10-13T08:26:06Z
2022-10-13T06:27:14Z,42.805,6.029,13.3046,4.60162,2470.637,2022-10-13T08:29:09Z
2022-10-13T06:30:17Z,42.805,6.029,13.3050,4.60142,2470.646,2022-10-13T08:32:12Z
2022-10-13T06:33:20Z,42.805,6.029,13.3044,4.60163,2470.637,2022-10-13T08:35:15Z
2022-10-13T06:36:23Z,42.805,6.029,13.3048,4.60149,2470.646,2022-10-13T08:38:18Z
2022-10-13T06:39:26Z,42.805,6.029,13.3046,4.60148,2470.624,2022-10-13T08:41:21Z
2022-10-13T06:42:29Z,42.805,6.029,13.3051,4.60146,2470.684,2022-10-13T08:44:24Z
2022-10-13T06:45:32Z,42.805,6.029,13.3056,4.60157,2470.646,2022-10-13T08:47:27Z
2022-10-13T06:48:35Z,42.805,6.029,13.3043,4.60177,2470.637,2022-10-13T08:50:30Z
2022-10-13T06:51:39Z,42.805,6.029,13.3037,4.60129,2470.693,2022-10-13T08:53:33Z
2022-10-13T06:54:42Z,42.805,6.029,13.3045,4.60127,2470.693,2022-10-13T08:56:37Z
2022-10-13T06:57:45Z,42.805,6.029,13.3046,4.60141,2470.67,2022-10-13T08:59:40Z
2022-10-13T07:00:48Z,42.805,6.029,13.3043,4.60144,2470.693,2022-10-13T09:02:43Z
2022-10-13T07:03:51Z,42.805,6.029,13.3033,4.60127,2470.661,2022-10-13T09:05:46Z
2022-10-13T07:06:54Z,42.805,6.029,13.3034,4.60115,2470.707,2022-10-13T09:08:49Z
2022-10-13T07:09:57Z,42.805,6.029,13.3038,4.60121,2470.684,2022-10-13T09:11:52Z
2022-10-13T07:13:00Z,42.805,6.029,13.3043,4.60117,2470.661,2022-10-13T09:14:55Z
2022-10-13T07:16:03Z,42.805,6.029,13.3031,4.60112,2470.684,2022-10-13T09:17:58Z
2022-10-13T07:19:06Z,42.805,6.029,13.3038,4.60129,2470.693,2022-10-13T09:21:01Z
2022-10-13T07:22:09Z,42.805,6.029,13.3042,4.60117,2470.693,2022-10-13T09:24:04Z
2022-10-13T07:25:12Z,42.805,6.029,13.3043,4.60114,2470.707,2022-10-13T09:27:07Z
2022-10-13T07:28:15Z,42.805,6.029,13.3038,4.60110,2470.707,2022-10-13T09:30:10Z
2022-10-13T07:31:19Z,42.805,6.029,13.3041,4.60104,2470.707,2022-10-13T09:33:14Z
2022-10-13T07:34:22Z,42.805,6.029,13.3034,4.60099,2470.693,2022-10-13T09:36:17Z
2022-10-13T07:37:25Z,42.805,6.029,13.3034,4.60092,2470.693,2022-10-13T09:39:20Z
2022-10-13T07:40:28Z,42.805,6.029,13.3033,4.60087,2470.693,2022-10-13T09:42:23Z
2022-10-13T07:43:31Z,42.805,6.029,13.3028,4.60121,2470.67,2022-10-13T09:45:26Z
2022-10-13T07:46:34Z,42.805,6.029,13.3031,4.60119,2470.717,2022-10-13T09:48:29Z
2022-10-13T07:49:37Z,42.805,6.029,13.3041,4.60117,2470.693,2022-10-13T09:51:32Z
2022-10-13T07:52:40Z,42.805,6.029,13.3039,4.60113,2470.693,2022-10-13T09:54:35Z
2022-10-13T07:55:43Z,42.805,6.029,13.3029,4.60110,2470.707,2022-10-13T09:57:38Z
2022-10-13T07:58:46Z,42.805,6.029,13.3036,4.60117,2470.73,2022-10-13T10:00:41Z
2022-10-13T08:01:49Z,42.805,6.029,13.3042,4.60117,2470.74,2022-10-13T10:03:44Z
2022-10-13T08:04:52Z,42.805,6.029,13.3039,4.60097,2470.717,2022-10-13T10:06:47Z
2022-10-13T08:07:56Z,42.805,6.029,13.3024,4.60083,2470.717,2022-10-13T10:09:50Z
2022-10-13T08:10:59Z,42.805,6.029,13.3036,4.60116,2470.74,2022-10-13T10:12:54Z
2022-10-13T08:14:02Z,42.805,6.029,13.3043,4.60110,2470.717,2022-10-13T10:15:57Z
2022-10-13T08:17:05Z,42.805,6.029,13.3029,4.60117,2470.73,2022-10-13T10:19:00Z
2022-10-13T08:20:08Z,42.805,6.029,13.3039,4.60109,2470.73,2022-10-13T10:22:03Z
2022-10-13T08:23:11Z,42.805,6.029,13.3043,4.60102,2470.73,2022-10-13T10:25:06Z
2022-10-13T08:26:14Z,42.805,6.029,13.3026,4.60122,2470.717,2022-10-13T10:28:09Z
2022-10-13T08:29:17Z,42.805,6.029,13.3046,4.60115,2470.73,2022-10-13T10:31:12Z
2022-10-13T08:32:20Z,42.805,6.029,13.3032,4.60122,2470.74,2022-10-13T10:34:15Z
2022-10-13T08:35:23Z,42.805,6.029,13.3043,4.60097,2470.73,2022-10-13T10:37:18Z
2022-10-13T08:38:26Z,42.805,6.029,13.3019,4.60113,2470.717,2022-10-13T10:40:21Z
2022-10-13T08:41:29Z,42.805,6.029,13.3037,4.60110,2470.73,2022-10-13T10:43:24Z
2022-10-13T08:44:33Z,42.805,6.029,13.3045,4.60116,2470.74,2022-10-13T10:46:27Z
2022-10-13T08:47:36Z,42.805,6.029,13.3041,4.60130,2470.703,2022-10-13T10:49:31Z
2022-10-13T08:50:39Z,42.805,6.029,13.3041,4.60125,2470.707,2022-10-13T10:52:34Z
2022-10-13T08:53:42Z,42.805,6.029,13.3039,4.60117,2470.763,2022-10-13T10:55:37Z
2022-10-13T08:56:45Z,42.805,6.029,13.3034,4.60084,2470.693,2022-10-13T10:58:40Z
2022-10-13T08:59:48Z,42.805,6.029,13.3047,4.60105,2470.74,2022-10-13T11:01:43Z
2022-10-13T09:02:51Z,42.805,6.029,13.3031,4.60135,2470.73,2022-10-13T11:04:46Z
2022-10-13T09:05:54Z,42.805,6.029,13.3049,4.60117,2470.717,2022-10-13T11:07:49Z
2022-10-13T09:08:57Z,42.805,6.029,13.3053,4.60104,2470.73,2022-10-13T11:10:52Z
2022-10-13T09:12:00Z,42.805,6.029,13.3049,4.60101,2470.717,2022-10-13T11:13:55Z
2022-10-13T09:15:03Z,42.805,6.029,13.3039,4.60114,2470.74,2022-10-13T11:16:58Z
2022-10-13T09:18:06Z,42.805,6.029,13.3038,4.60096,2470.717,2022-10-13T11:20:01Z
2022-10-13T09:21:09Z,42.805,6.029,13.3054,4.60114,2470.693,2022-10-13T11:23:04Z
2022-10-13T09:24:13Z,42.805,6.029,13.3037,4.60104,2470.74,2022-10-13T11:26:08Z
2022-10-13T09:27:16Z,42.805,6.029,13.3043,4.60111,2470.679,2022-10-13T11:29:11Z
2022-10-13T09:30:19Z,42.805,6.029,13.3044,4.60111,2470.717,2022-10-13T11:32:14Z
2022-10-13T09:33:22Z,42.805,6.029,13.3061,4.60099,2470.717,2022-10-13T11:35:17Z
2022-10-13T09:36:25Z,42.805,6.029,13.3027,4.60111,2470.74,2022-10-13T11:38:20Z
2022-10-13T09:39:28Z,42.805,6.029,13.3038,4.60107,2470.73,2022-10-13T11:41:23Z
2022-10-13T09:42:31Z,42.805,6.029,13.3031,4.60114,2470.717,2022-10-13T11:44:26Z
2022-10-13T09:45:34Z,42.805,6.029,13.3026,4.60086,2470.693,2022-10-13T11:47:29Z
2022-10-13T09:48:37Z,42.805,6.029,13.3034,4.60101,2470.717,2022-10-13T11:50:32Z
2022-10-13T09:51:40Z,42.805,6.029,13.3034,4.60116,2470.73,2022-10-13T11:53:35Z
2022-10-13T09:54:43Z,42.805,6.029,13.3044,4.60125,2470.717,2022-10-13T11:56:38Z
2022-10-13T09:57:47Z,42.805,6.029,13.3039,4.60130,2470.693,2022-10-13T11:59:41Z
2022-10-13T10:00:50Z,42.805,6.029,13.3036,4.60141,2470.693,2022-10-13T12:02:45Z
2022-10-13T10:03:53Z,42.805,6.029,13.3043,4.60113,2470.73,2022-10-13T12:05:48Z
2022-10-13T10:06:56Z,42.805,6.029,13.3035,4.60125,2470.73,2022-10-13T12:08:51Z
2022-10-13T10:09:59Z,42.805,6.029,13.3042,4.60116,2470.73,2022-10-13T12:11:54Z
2022-10-13T10:13:02Z,42.805,6.029,13.3041,4.60103,2470.717,2022-10-13T12:14:57Z
2022-10-13T10:16:05Z,42.805,6.029,13.3039,4.60107,2470.754,2022-10-13T12:18:00Z
2022-10-13T10:19:08Z,42.805,6.029,13.3032,4.60113,2470.693,2022-10-13T12:21:03Z
2022-10-13T10:22:11Z,42.805,6.029,13.3032,4.60119,2470.74,2022-10-13T12:24:06Z
2022-10-13T10:25:14Z,42.805,6.029,13.3049,4.60126,2470.707,2022-10-13T12:27:09Z
2022-10-13T10:28:17Z,42.805,6.029,13.3039,4.60101,2470.717,2022-10-13T12:30:12Z
2022-10-13T10:31:20Z,42.805,6.029,13.3037,4.60123,2470.693,2022-10-13T12:33:15Z
2022-10-13T10:34:23Z,42.805,6.029,13.3024,4.60128,2470.693,2022-10-13T12:36:18Z
2022-10-13T10:37:27Z,42.805,6.029,13.3036,4.60118,2470.693,2022-10-13T12:39:22Z
2022-10-13T10:40:30Z,42.805,6.029,13.3022,4.60109,2470.693,2022-10-13T12:42:25Z
2022-10-13T10:43:33Z,42.805,6.029,13.3032,4.60120,2470.707,2022-10-13T12:45:28Z
2022-10-13T10:46:36Z,42.805,6.029,13.3040,4.60127,2470.707,2022-10-13T12:48:31Z
2022-10-13T10:49:39Z,42.805,6.029,13.3054,4.60126,2470.684,2022-10-13T12:51:34Z
2022-10-13T10:52:42Z,42.805,6.029,13.3031,4.60132,2470.67,2022-10-13T12:54:37Z
2022-10-13T10:55:45Z,42.805,6.029,13.3048,4.60113,2470.707,2022-10-13T12:57:40Z
2022-10-13T10:58:48Z,42.805,6.029,13.3024,4.60125,2470.693,2022-10-13T13:00:43Z
2022-10-13T11:01:51Z,42.805,6.029,13.3043,4.60127,2470.707,2022-10-13T13:03:46Z
2022-10-13T11:04:54Z,42.805,6.029,13.3061,4.60097,2470.684,2022-10-13T13:06:49Z
2022-10-13T11:07:57Z,42.805,6.029,13.3051,4.60075,2470.707,2022-10-13T13:09:52Z
2022-10-13T11:11:00Z,42.805,6.029,13.3054,4.60128,2470.707,2022-10-13T13:12:55Z
2022-10-13T11:14:04Z,42.805,6.029,13.3041,4.60142,2470.693,2022-10-13T13:15:59Z
2022-10-13T11:17:07Z,42.805,6.029,13.3061,4.60112,2470.684,2022-10-13T13:19:02Z
2022-10-13T11:20:10Z,42.805,6.029,13.3038,4.60114,2470.67,2022-10-13T13:22:05Z
2022-10-13T11:23:13Z,42.805,6.029,13.3056,4.60111,2470.684,2022-10-13T13:25:08Z
2022-10-13T11:26:16Z,42.805,6.029,13.3040,4.60116,2470.624,2022-10-13T13:28:11Z
2022-10-13T11:29:19Z,42.805,6.029,13.3060,4.60123,2470.67,2022-10-13T13:31:14Z
2022-10-13T11:32:22Z,42.805,6.029,13.3054,4.60105,2470.67,2022-10-13T13:34:17Z
2022-10-13T11:35:25Z,42.805,6.029,13.3058,4.60118,2470.707,2022-10-13T13:37:20Z
2022-10-13T11:38:28Z,42.805,6.029,13.3058,4.60147,2470.693,2022-10-13T13:40:23Z
2022-10-13T11:41:31Z,42.805,6.029,13.3052,4.60142,2470.661,2022-10-13T13:43:26Z
2022-10-13T11:44:34Z,42.805,6.029,13.3032,4.60123,2470.684,2022-10-13T13:46:29Z
2022-10-13T11:47:37Z,42.805,6.029,13.3046,4.60112,2470.67,2022-10-13T13:49:32Z
2022-10-13T11:50:41Z,42.805,6.029,13.3058,4.60109,2470.646,2022-10-13T13:52:36Z
2022-10-13T11:53:44Z,42.805,6.029,13.3062,4.60132,2470.684,2022-10-13T13:55:39Z
2022-10-13T11:56:47Z,42.805,6.029,13.3043,4.60140,2470.707,2022-10-13T13:58:42Z
2022-10-13T11:59:50Z,42.805,6.029,13.3064,4.60137,2470.684,2022-10-13T14:01:45Z
2022-10-13T12:02:53Z,42.805,6.029,13.3027,4.60113,2470.684,2022-10-13T14:04:48Z
2022-10-13T12:05:56Z,42.805,6.029,13.3067,4.60127,2470.637,2022-10-13T14:07:51Z
2022-10-13T12:08:59Z,42.805,6.029,13.3051,4.60116,2470.646,2022-10-13T14:10:54Z
2022-10-13T12:12:02Z,42.805,6.029,13.3068,4.60129,2470.624,2022-10-13T14:13:57Z
2022-10-13T12:15:05Z,42.805,6.029,13.3040,4.60117,2470.67,2022-10-13T14:17:00Z
2022-10-13T12:18:08Z,42.805,6.029,13.3046,4.60128,2470.67,2022-10-13T14:20:03Z
2022-10-13T12:21:11Z,42.805,6.029,13.3044,4.60137,2470.661,2022-10-13T14:23:06Z
2022-10-13T12:24:14Z,42.805,6.029,13.3078,4.60127,2470.646,2022-10-13T14:26:09Z
2022-10-13T12:27:17Z,42.805,6.029,13.3064,4.60140,2470.661,2022-10-13T14:29:12Z
2022-10-13T12:30:21Z,42.805,6.029,13.3053,4.60140,2470.637,2022-10-13T14:32:16Z
2022-10-13T12:33:24Z,42.805,6.029,13.3057,4.60131,2470.6,2022-10-13T14:35:19Z
2022-10-13T12:36:27Z,42.805,6.029,13.3067,4.60117,2470.646,2022-10-13T14:38:22Z
2022-10-13T12:39:30Z,42.805,6.029,13.3045,4.60119,2470.646,2022-10-13T14:41:25Z
2022-10-13T12:42:33Z,42.805,6.029,13.3066,4.60119,2470.6,2022-10-13T14:44:28Z
2022-10-13T12:45:36Z,42.805,6.029,13.3055,4.60134,2470.646,2022-10-13T14:47:31Z
2022-10-13T12:48:39Z,42.805,6.029,13.3038,4.60137,2470.624,2022-10-13T14:50:34Z
2022-10-13T12:51:42Z,42.805,6.029,13.3032,4.60122,2470.614,2022-10-13T14:53:37Z
2022-10-13T12:54:45Z,42.805,6.029,13.3046,4.60125,2470.661,2022-10-13T14:56:40Z
2022-10-13T12:57:48Z,42.805,6.029,13.3029,4.60138,2470.637,2022-10-13T14:59:43Z
2022-10-13T13:00:51Z,42.805,6.029,13.3041,4.60122,2470.6,2022-10-13T15:02:46Z
2022-10-13T13:03:55Z,42.805,6.029,13.3052,4.60137,2470.614,2022-10-13T15:05:49Z
2022-10-13T13:06:58Z,42.805,6.029,13.3060,4.60118,2470.624,2022-10-13T15:08:53Z
2022-10-13T13:10:01Z,42.805,6.029,13.3043,4.60127,2470.614,2022-10-13T15:11:56Z
2022-10-13T13:13:04Z,42.805,6.029,13.3044,4.60122,2470.6,2022-10-13T15:14:59Z
2022-10-13T13:16:07Z,42.805,6.029,13.3043,4.60131,2470.624,2022-10-13T15:18:02Z
2022-10-13T13:19:10Z,42.805,6.029,13.3063,4.60131,2470.624,2022-10-13T15:21:05Z
2022-10-13T13:22:13Z,42.805,6.029,13.3059,4.60127,2470.6,2022-10-13T15:24:08Z
2022-10-13T13:25:16Z,42.805,6.029,13.3040,4.60113,2470.614,2022-10-13T15:27:11Z
2022-10-13T13:28:19Z,42.805,6.029,13.3041,4.60093,2470.591,2022-10-13T15:30:14Z
2022-10-13T13:31:22Z,42.805,6.029,13.3039,4.60085,2470.591,2022-10-13T15:33:17Z
2022-10-13T13:34:25Z,42.805,6.029,13.3029,4.60092,2470.637,2022-10-13T15:36:20Z
2022-10-13T13:37:28Z,42.805,6.029,13.3026,4.60106,2470.614,2022-10-13T15:39:23Z
2022-10-13T13:40:31Z,42.805,6.029,13.3048,4.60157,2470.6,2022-10-13T15:42:26Z
2022-10-13T13:43:35Z,42.805,6.029,13.3046,4.60137,2470.6,2022-10-13T15:45:30Z
2022-10-13T13:46:38Z,42.805,6.029,13.3032,4.60138,2470.591,2022-10-13T15:48:33Z
2022-10-13T13:49:41Z,42.805,6.029,13.3046,4.60122,2470.614,2022-10-13T15:51:36Z
2022-10-13T13:52:44Z,42.805,6.029,13.3056,4.60132,2470.614,2022-10-13T15:54:39Z
2022-10-13T13:55:47Z,42.805,6.029,13.3058,4.60124,2470.614,2022-10-13T15:57:42Z
2022-10-13T13:58:50Z,42.805,6.029,13.3038,4.60114,2470.577,2022-10-13T16:00:45Z
2022-10-13T14:01:53Z,42.805,6.029,13.3022,4.60134,2470.591,2022-10-13T16:03:48Z
2022-10-13T14:04:56Z,42.805,6.029,13.3034,4.60114,2470.577,2022-10-13T16:06:51Z
2022-10-13T14:07:59Z,42.805,6.029,13.3028,4.60142,2470.577,2022-10-13T16:09:54Z
2022-10-13T14:11:02Z,42.805,6.029,13.3048,4.60122,2470.553,2022-10-13T16:12:57Z
2022-10-13T14:14:05Z,42.805,6.029,13.3049,4.60105,2470.577,2022-10-13T16:16:00Z
2022-10-13T14:17:09Z,42.805,6.029,13.3059,4.60135,2470.577,2022-10-13T16:19:03Z
2022-10-13T14:20:12Z,42.805,6.029,13.3060,4.60114,2470.567,2022-10-13T16:22:07Z
2022-10-13T14:23:15Z,42.805,6.029,13.3035,4.60128,2470.614,2022-10-13T16:25:10Z
2022-10-13T14:26:18Z,42.805,6.029,13.3072,4.60127,2470.567,2022-10-13T16:28:13Z
2022-10-13T14:29:21Z,42.805,6.029,13.3056,4.60114,2470.591,2022-10-13T16:31:16Z
2022-10-13T14:32:24Z,42.805,6.029,13.3063,4.60122,2470.614,2022-10-13T16:34:19Z
2022-10-13T14:35:27Z,42.805,6.029,13.3025,4.60110,2470.567,2022-10-13T16:37:22Z
2022-10-13T14:38:30Z,42.805,6.029,13.3043,4.60120,2470.577,2022-10-13T16:40:25Z
2022-10-13T14:41:33Z,42.805,6.029,13.3048,4.60123,2470.591,2022-10-13T16:43:28Z
2022-10-13T14:44:36Z,42.805,6.029,13.3015,4.60104,2470.6,2022-10-13T16:46:31Z
2022-10-13T14:47:39Z,42.805,6.029,13.3028,4.60099,2470.567,2022-10-13T16:49:34Z
2022-10-13T14:50:42Z,42.805,6.029,13.3019,4.60070,2470.53,2022-10-13T16:52:37Z
2022-10-13T14:53:46Z,42.805,6.029,13.3021,4.60092,2470.6,2022-10-13T16:55:40Z
2022-10-13T14:56:49Z,42.805,6.029,13.3033,4.60116,2470.591,2022-10-13T16:58:44Z
2022-10-13T14:59:52Z,42.805,6.029,13.3069,4.60104,2470.553,2022-10-13T17:01:47Z
2022-10-13T15:02:55Z,42.805,6.029,13.3034,4.60114,2470.567,2022-10-13T17:04:50Z